User: anonymous   Login
Location: Jabiru
(12.6667°S, 132.8333°E)
Time: 08:51:53
(UTC+09:30)
Language:

PicSat - Orbit

View from above orbital plane
View from above orbital plane
View from above satellite
View from above satellite

Ground track
Ground track

The orbit data is extracted from the following two-line orbital elements,

1 43131U 18004W   19169.87475996 +.00001166 +00000-0 +50948-4 0  9990
2 43131 097.4891 237.9188 0007839 248.6675 111.3725 15.24105711079547
Epoch (UTC): 18 June 2019 20:59:39
Eccentricity: 0.0007839
inclination: 97.4891°
perigee height: 488 km
apogee height: 499 km
right ascension of ascending node: 237.9188°
argument of perigee: 248.6675°
revolutions per day: 15.24105711
mean anomaly at epoch: 111.3725°
orbit number at epoch: 7954

The dashed part of the orbit path shows where the satellite is in the earth's shadow,  

DLR